This is the latest recevied weather packets stored in our database for station/object N3WGC-14. If no packets are shown the sender has not sent any weather packets the latest 1 day(s).
| Time | Temp. | Humidity | Pressure | Rain* | Wind** | Luminosity | Snow |
|---|---|---|---|---|---|---|---|
| 1778041489 | 20.56° C | 74% | 1011.1 hPa | 0 mm | 0.45 m/s, 75° | - | - |
| 1778041188 | 20.56° C | 73% | 1011.1 hPa | 0 mm | 0.89 m/s, 118° | - | - |
| 1778040888 | 20.56° C | 73% | 1011.1 hPa | 0 mm | 0.89 m/s, 69° | - | - |
| 1778040588 | 20.56° C | 72% | 1011.2 hPa | 0 mm | 1.34 m/s, 70° | - | - |
| 1778040288 | 20.56° C | 72% | 1011 hPa | 0 mm | 0.89 m/s, 34° | - | - |
| 1778039988 | 20.56° C | 71% | 1011.1 hPa | 0 mm | 0.45 m/s, 251° | - | - |
| 1778039688 | 20.56° C | 71% | 1011 hPa | 0 mm | 0.45 m/s, 103° | - | - |
| 1778039387 | 20.56° C | 70% | 1011 hPa | 0 mm | 0.45 m/s, 90° | - | - |
| 1778039087 | 21.11° C | 70% | 1011 hPa | 0 mm | 0.89 m/s, 99° | - | - |
| 1778038787 | 21.11° C | 69% | 1011 hPa | 0 mm | 0.45 m/s, 303° | - | - |
| 1778038487 | 21.11° C | 69% | 1010.9 hPa | 0 mm | 0.45 m/s, 212° | - | - |
| 1778038187 | 21.11° C | 68% | 1010.9 hPa | 0 mm | 0.89 m/s, 107° | - | - |
| 1778037887 | 21.11° C | 68% | 1010.9 hPa | 0 mm | 0.89 m/s, 115° | - | - |
| 1778037587 | 21.11° C | 67% | 1010.9 hPa | 0 mm | 0.89 m/s, 274° | - | - |
| 1778037286 | 21.11° C | 67% | 1010.9 hPa | 0 mm | 0.89 m/s, 151° | - | - |
| 1778036986 | 21.11° C | 67% | 1010.9 hPa | 0 mm | 0.45 m/s, 106° | - | - |
| 1778036686 | 21.11° C | 67% | 1011 hPa | 0 mm | 0.89 m/s, 127° | - | - |
| 1778036386 | 21.11° C | 67% | 1011 hPa | 0 mm | 0.45 m/s, 147° | - | - |
| 1778036086 | 21.11° C | 67% | 1011 hPa | 0 mm | 0.89 m/s, 355° | - | - |
| 1778035786 | 21.11° C | 67% | 1011 hPa | 0 mm | 0.89 m/s, 70° | - | - |
| 1778035486 | 21.11° C | 67% | 1011.2 hPa | 0 mm | 0.89 m/s, 81° | - | - |
| 1778035185 | 21.11° C | 67% | 1011.3 hPa | 0 mm | 0.45 m/s, 29° | - | - |
| 1778034885 | 21.11° C | 66% | 1011.3 hPa | 0 mm | 1.34 m/s, 134° | - | - |
| 1778034585 | 21.11° C | 66% | 1011.3 hPa | 0 mm | 1.34 m/s, 102° | - | - |
| 1778034285 | 21.67° C | 66% | 1011.4 hPa | 0 mm | 0.45 m/s, 100° | - | - |
* Rain latest hour (hover to see other rain measurements)
** Current wind speed in m/s (hover to see current wind gust speed)